Theta_e
328 320 316 314 311 311 310 300 295 293 285 285 281 286 291 292 293 292 293 292 293 294 294 294 294 297 299 294 295 294 293 292 291 288 293 296 304 310 318 326 321 328 332 336 340 342 345 347 350 352 354 354 354 354 354 353 353 353 352 351 350 350 349 348 348 347 347 348 347 347 348 347 347 347 347 348 348 348 348 349 349 349 349 348 349 348 347 346 344 344 343 342 340 339 339 339 338
320 316 314 315 311 308 303 294 289 282 283 283 286 285 286 289 292 290 294 293 294 298 293 293 295 294 293 293 293 296 296 295 296 298 301 302 306 310 314 324 326 329 333 336 340 342 344 345 348 351 354 354 354 354 353 353 353 353 352 351 350 350 349 348 347 346 346 347 347 348 347 347 347 347 347 347 347 348 348 348 348 348 349 348 347 346 347 346 345 344 343 341 340 338 337 336 336
319 317 314 310 308 303 299 296 294 279 281 282 283 285 287 290 291 290 291 292 294 294 291 294 295 296 296 296 297 296 295 297 296 297 304 307 307 307 318 323 327 330 333 336 340 342 344 344 346 350 354 354 354 354 354 353 352 352 351 350 350 349 349 348 347 345 347 347 347 347 348 347 347 347 347 347 347 348 348 348 347 347 348 348 347 347 346 346 345 344 342 341 339 337 336 335 333
314 315 312 305 305 298 295 287 284 280 283 279 282 286 288 290 289 289 290 292 292 291 295 298 299 298 298 294 297 296 295 298 298 302 303 309 306 307 321 324 326 330 331 335 339 341 343 344 345 350 353 354 353 354 354 353 352 352 352 350 349 349 348 347 348 347 348 348 348 348 348 347 348 347 347 347 346 347 347 347 347 348 347 347 346 346 346 346 344 343 341 340 338 336 334 333 332
313 315 307 303 299 298 289 287 284 281 282 282 287 287 287 288 291 289 291 291 290 292 295 298 296 298 299 298 297 296 299 298 301 304 305 306 308 309 323 326 329 331 332 334 338 340 341 342 344 347 353 354 353 354 353 353 352 352 352 350 349 349 348 347 347 348 348 348 348 348 347 347 347 347 347 346 346 346 346 346 347 346 346 346 346 346 345 344 343 342 340 339 337 335 333 331 330
309 309 307 303 303 297 291 288 288 287 285 285 288 291 289 288 291 293 291 291 293 294 295 294 297 297 297 298 296 299 295 302 302 306 307 310 313 313 324 328 330 330 330 333 336 339 340 341 344 346 352 353 353 354 353 353 352 352 351 350 349 349 348 347 347 347 348 348 348 348 348 347 347 347 347 346 346 346 346 347 346 346 345 345 346 344 343 343 342 340 338 338 337 335 332 330 329
310 302 301 301 298 295 289 283 287 284 292 288 292 288 290 289 290 291 292 295 297 295 293 298 294 296 295 295 297 298 297 305 307 308 308 309 312 320 327 331 330 329 330 333 335 337 338 340 344 348 350 351 352 352 353 353 352 352 350 350 349 349 349 347 347 347 348 348 348 348 348 347 347 347 347 346 346 346 346 347 346 345 346 345 344 343 342 341 339 338 337 336 335 333 331 329 328
308 304 298 293 291 287 286 283 285 284 291 288 291 290 290 289 287 292 291 294 294 296 296 293 293 296 296 295 296 297 297 302 307 308 313 313 315 320 329 332 330 329 330 330 333 335 337 339 343 347 348 351 352 352 353 352 352 351 350 350 349 348 348 347 348 347 348 348 348 348 348 347 348 347 347 346 346 345 346 345 345 346 345 343 343 342 340 339 338 337 337 335 333 331 329 327 326
303 301 296 295 288 285 283 287 288 286 288 289 291 290 299 297 289 292 292 292 294 294 293 296 295 294 293 294 295 296 298 301 304 310 313 315 317 320 325 327 329 330 333 333 331 332 334 338 341 346 346 349 351 352 352 352 352 351 350 349 350 348 348 348 348 348 348 348 348 348 348 348 347 347 346 346 345 346 346 345 345 344 344 343 342 340 338 337 337 339 337 335 332 330 328 326 325
302 298 292 290 286 287 282 285 287 290 290 290 290 291 290 291 291 293 293 295 296 293 295 294 295 297 295 296 294 300 304 301 307 315 313 315 315 319 324 324 324 331 333 335 334 333 334 334 338 341 344 348 350 351 352 352 351 351 350 349 349 349 348 348 348 348 348 348 348 348 348 348 347 347 345 345 345 346 346 345 345 343 343 342 341 340 339 338 337 339 337 333 330 327 325 325 323
297 294 293 287 281 281 284 284 283 287 288 290 290 292 292 290 294 292 292 293 292 294 293 294 297 295 295 295 295 299 300 298 311 312 314 314 315 317 323 322 323 329 333 335 335 333 333 334 334 337 341 343 347 349 350 351 351 351 350 349 349 349 348 349 348 348 349 348 349 348 348 348 347 346 346 345 344 345 345 344 343 343 342 341 340 339 337 337 339 339 335 332 329 326 325 323 322
297 291 288 281 283 283 283 284 285 287 290 288 296 293 292 293 292 294 294 295 292 289 293 295 296 295 294 292 297 300 297 299 307 312 311 313 314 314 318 314 320 324 329 333 333 333 330 331 334 335 336 337 341 345 346 348 349 350 349 349 349 349 348 349 349 349 349 349 349 349 348 347 347 346 346 345 344 344 344 344 343 342 341 340 339 338 337 335 338 336 333 330 328 326 324 323 322
293 287 285 283 286 285 283 284 285 289 285 289 294 296 291 294 295 294 292 291 290 291 295 294 296 296 294 296 296 292 298 300 300 306 306 312 315 312 312 313 317 323 325 328 333 334 330 331 334 335 335 333 334 336 340 342 345 347 347 348 347 347 347 348 348 348 348 349 349 349 348 347 345 347 346 345 344 344 343 343 344 342 341 340 338 337 336 334 338 335 332 329 327 325 323 320 319
294 289 289 286 282 282 283 287 285 289 287 291 288 290 291 294 292 293 290 293 291 294 294 296 296 295 295 292 289 288 293 299 298 304 306 312 311 312 313 313 315 320 321 327 332 333 333 332 333 334 336 336 337 335 333 338 341 344 345 345 345 345 345 347 346 346 346 346 345 344 343 342 344 345 345 344 345 344 343 341 342 342 341 339 338 337 336 338 335 333 331 329 327 324 321 319 318
299 290 284 283 281 283 283 289 288 283 291 292 294 292 291 294 292 289 293 293 293 292 295 296 298 296 291 294 291 292 298 297 300 306 310 312 311 309 312 312 313 315 320 324 329 331 333 333 334 335 336 339 339 339 340 339 334 339 341 342 342 342 343 343 343 342 341 342 342 340 339 337 336 338 339 341 342 340 337 335 342 342 340 339 336 335 338 336 334 332 330 329 326 323 321 318 318
295 290 285 286 283 282 286 286 284 286 290 290 293 289 291 294 291 295 294 295 295 296 295 298 297 297 295 295 296 296 295 296 302 308 311 312 309 311 307 312 312 313 316 324 328 329 331 333 335 336 337 339 339 340 340 342 334 332 336 338 338 339 340 340 339 337 335 336 336 335 333 331 331 333 330 334 334 338 335 333 337 337 341 338 336 335 337 335 333 331 330 328 326 323 319 317 317
294 290 288 280 285 284 285 287 286 289 287 288 289 291 292 291 292 292 294 294 296 294 291 295 298 296 294 296 297 296 301 307 310 312 312 311 305 310 309 311 310 312 316 322 327 329 329 331 334 336 337 339 340 340 340 341 340 330 332 331 333 335 336 335 336 332 329 328 329 327 325 332 333 334 330 332 327 334 326 327 333 336 340 340 337 336 336 334 332 331 330 328 325 322 317 315 315
291 284 282 284 282 284 286 289 288 291 292 292 291 290 292 290 291 295 295 293 289 289 292 292 293 293 295 294 296 300 302 306 306 310 308 309 306 309 308 308 308 315 312 315 322 327 329 331 333 335 336 337 339 340 341 341 341 334 339 340 337 336 331 330 332 332 328 330 325 328 328 328 331 332 331 331 332 331 326 324 328 334 338 335 334 336 335 333 332 331 329 327 325 319 313 295 294
287 285 284 284 281 287 290 289 289 291 292 290 290 288 291 292 293 294 294 292 289 293 294 293 293 294 294 292 291 296 303 304 305 305 305 305 306 307 308 308 310 311 314 313 314 322 329 331 332 334 335 337 338 339 340 341 341 339 339 340 339 333 334 332 335 331 329 330 331 332 329 329 331 331 332 331 331 325 328 322 327 330 333 331 332 335 335 333 332 331 329 326 321 313 295 291 288
291 289 287 283 286 288 289 289 292 291 293 293 291 291 290 293 294 293 294 291 291 292 294 292 293 294 294 294 292 292 300 301 302 304 304 304 304 305 306 307 309 310 312 314 315 314 324 330 332 333 334 335 336 338 339 340 340 339 340 340 339 339 339 336 335 335 332 330 332 332 331 330 332 333 328 324 326 328 327 320 324 326 328 326 327 330 332 332 331 330 327 322 311 299 292 291 288
294 291 287 288 288 292 294 290 292 291 291 292 291 290 291 292 290 293 291 293 294 294 293 294 294 294 294 294 292 293 295 296 297 299 299 299 299 301 301 303 305 308 310 311 311 314 318 326 331 332 334 335 336 337 337 338 339 339 339 340 339 338 337 338 336 336 335 333 332 332 332 330 332 333 332 329 327 326 325 324 323 325 325 324 322 322 323 324 321 313 310 304 297 296 292 289 287
293 292 289 290 289 292 293 291 291 291 289 292 289 291 294 293 292 291 292 291 293 294 295 292 294 293 292 292 292 294 294 294 295 295 295 295 295 295 297 297 298 299 302 304 307 312 314 320 328 331 332 334 334 336 337 337 338 338 338 339 339 338 337 334 336 336 335 336 334 332 331 331 331 331 328 328 327 325 323 322 322 322 322 322 323 321 318 318 314 309 305 302 296 293 291 290 292
293 289 291 290 289 293 294 292 290 291 292 291 291 292 291 292 292 291 292 293 295 295 295 296 293 292 292 295 294 294 294 294 294 294 295 295 295 296 296 297 296 297 297 300 303 307 313 314 320 328 331 332 333 335 337 337 337 338 338 337 338 335 337 338 334 334 334 334 335 333 332 329 328 328 327 325 325 323 323 321 321 320 321 319 318 320 316 314 313 308 303 301 296 295 293 290 290
293 291 289 293 290 294 293 295 291 291 291 292 290 290 291 290 292 290 290 293 294 293 292 293 295 296 296 294 294 293 293 293 294 294 295 295 295 295 296 296 297 297 297 299 300 301 305 312 316 322 328 332 332 334 335 336 336 337 337 335 337 336 334 333 336 335 331 331 332 333 331 332 329 326 326 325 324 321 322 321 320 318 318 317 315 318 316 311 310 305 302 298 297 296 295 293 290
293 292 289 291 290 291 290 289 288 289 289 290 289 291 293 291 290 290 293 293 293 291 291 294 295 295 294 294 293 293 293 293 293 294 294 295 295 296 296 296 297 298 298 299 301 302 303 306 312 317 323 328 332 334 334 335 335 336 335 335 335 330 336 335 332 333 335 333 328 329 331 331 329 329 326 324 321 321 320 319 319 319 317 316 314 313 315 312 309 306 303 301 297 296 295 295 293
291 291 290 288 289 289 289 290 290 289 290 289 291 291 291 290 290 290 290 293 291 291 293 293 293 293 293 292 293 292 292 292 293 293 294 294 295 295 295 296 297 297 298 300 301 304 305 305 308 314 317 325 329 332 333 333 334 334 334 334 334 333 332 332 332 330 329 331 331 330 329 329 328 328 326 323 322 320 318 317 317 317 317 315 314 313 311 313 311 304 302 300 299 297 296 294 294
290 289 288 290 292 289 290 290 291 290 291 288 291 291 290 289 291 289 291 290 290 292 292 292 292 292 292 292 292 292 292 291 292 293 293 293 294 294 294 295 295 297 298 299 301 303 306 307 309 311 315 317 323 329 330 332 332 333 333 332 332 333 332 329 328 330 329 330 328 326 327 327 326 324 323 321 321 321 319 318 317 315 315 314 313 314 310 312 310 310 307 306 302 298 298 293 294
290 291 289 289 288 289 289 289 290 290 292 287 290 288 289 289 290 289 290 290 290 291 291 292 291 290 291 291 291 291 291 292 292 292 291 291 292 293 293 293 294 296 297 298 300 303 307 310 312 310 313 315 319 324 326 329 329 330 329 331 330 331 329 330 329 326 325 326 326 325 326 324 323 325 324 322 322 321 320 319 318 315 316 314 313 312 310 308 308 307 306 305 301 299 297 292 291
291 290 291 288 288 291 290 289 289 290 292 287 288 290 290 288 288 290 290 289 291 292 291 291 290 290 290 290 291 291 291 291 291 291 291 292 292 293 292 294 294 295 297 298 300 301 304 308 312 312 313 313 318 321 323 324 326 327 328 328 328 327 330 330 330 328 322 323 324 324 325 323 321 322 321 320 318 318 318 316 315 314 316 315 312 310 309 307 307 306 304 301 299 297 297 295 292
291 287 287 290 287 289 290 289 288 291 291 286 290 286 286 286 289 290 290 288 290 291 290 290 289 289 289 289 290 290 290 291 290 290 291 291 292 292 292 293 295 295 296 298 299 300 302 305 310 312 312 313 315 318 319 321 322 322 324 326 327 328 327 329 329 330 327 325 321 320 322 322 320 322 322 319 318 317 317 317 316 314 313 312 311 310 310 308 308 306 303 303 302 300 298 296 294
291 288 287 285 284 284 288 289 289 291 290 288 291 286 285 287 289 289 289 288 289 290 290 289 289 288 289 289 289 289 290 290 290 290 291 291 291 292 292 293 294 295 295 296 297 298 300 301 305 309 311 312 313 314 316 317 318 320 320 321 322 324 323 324 324 323 323 323 323 322 320 320 318 319 318 320 318 318 318 316 315 316 315 312 311 308 309 306 308 307 303 304 299 298 295 293 293
283 287 283 279 284 284 286 290 288 291 291 287 291 284 287 290 290 289 291 288 290 289 289 288 288 288 288 288 288 288 289 290 290 290 290 291 291 291 292 292 293 294 294 295 296 298 298 299 300 303 307 311 312 312 314 315 316 316 317 315 317 317 318 318 318 319 320 320 320 319 319 317 317 317 316 315 316 313 313 314 315 312 311 310 310 308 308 308 307 305 303 305 303 301 295 295 291
280 285 282 282 281 282 286 290 286 289 288 289 290 287 283 289 286 289 291 288 289 288 287 287 287 287 288 288 288 287 288 288 289 289 290 290 291 291 291 292 292 293 294 294 294 296 297 298 299 299 301 306 311 313 314 314 315 314 314 314 314 314 314 314 314 314 314 315 315 315 316 315 317 316 315 314 314 313 313 313 311 308 307 309 309 307 308 308 307 305 301 302 306 305 296 294 292
282 280 282 281 283 283 284 287 288 286 289 289 287 287 285 289 291 290 291 289 289 288 287 287 287 287 287 287 287 287 287 287 287 288 288 289 290 290 291 292 292 292 293 293 294 294 295 296 297 298 299 302 306 311 313 314 314 314 313 313 312 312 311 311 311 311 311 311 311 311 312 311 311 313 313 313 314 312 312 311 309 308 307 307 306 306 306 305 306 306 305 300 299 300 297 295 296
280 282 282 284 281 282 286 284 288 289 287 288 286 286 286 290 290 289 289 289 288 287 287 286 286 287 287 287 286 286 286 286 286 288 288 288 289 290 290 290 291 291 292 292 293 293 294 295 296 296 297 300 303 307 311 312 313 312 311 309 309 309 308 308 307 306 307 308 308 308 308 308 308 310 310 311 310 310 310 309 308 307 308 307 306 305 304 303 302 302 303 300 294 295 297 296 295
286 284 283 281 284 284 283 286 286 289 287 286 285 287 289 290 289 288 289 288 287 287 287 287 287 286 286 286 286 286 285 286 287 287 287 288 288 289 289 290 290 290 291 291 292 292 292 293 294 295 296 298 300 302 305 308 307 306 305 305 304 304 304 303 303 302 302 302 303 304 305 305 305 306 308 309 308 308 307 307 306 306 306 306 305 304 303 303 302 301 301 300 298 295 292 291 291
284 284 284 283 284 285 284 285 287 287 287 286 287 285 284 287 285 286 287 288 287 286 286 286 286 286 285 285 285 285 285 285 286 287 287 287 287 288 288 288 289 289 290 290 290 291 291 291 292 292 294 295 296 298 299 301 303 302 301 300 300 300 299 299 299 299 298 298 299 300 300 301 302 303 304 305 306 305 306 305 305 305 305 305 304 303 303 302 301 301 299 298 298 297 295 291 291
287 286 284 284 282 284 286 287 287 287 288 283 282 283 286 287 285 286 286 286 285 285 285 285 285 285 285 284 284 284 285 286 286 286 286 286 286 287 287 287 288 287 288 289 289 289 290 291 291 291 292 293 294 295 296 297 299 300 299 298 297 297 296 295 295 296 295 295 295 295 296 296 297 299 300 302 302 303 303 303 303 303 304 304 303 302 301 299 299 298 298 297 295 297 296 293 293
284 284 283 282 285 283 286 286 285 286 287 285 283 285 287 285 284 286 285 284 285 285 285 285 284 284 284 284 284 284 284 284 284 285 285 285 285 285 286 286 286 286 287 287 288 289 289 289 290 290 291 291 292 294 295 294 295 296 297 297 297 295 296 295 294 294 294 293 292 293 293 293 293 293 295 297 299 299 300 300 300 301 301 302 302 301 301 300 299 297 297 298 296 293 292 291 293
284 283 283 284 283 285 283 285 284 286 285 284 283 284 287 283 284 285 285 285 284 285 285 284 285 284 283 283 283 283 283 283 283 283 283 284 284 284 285 285 285 286 286 286 287 287 288 288 289 289 290 290 291 292 293 293 294 294 294 294 294 294 292 293 292 292 291 291 289 290 290 291 291 290 291 293 294 295 296 297 298 298 298 299 299 298 298 298 298 298 297 296 297 296 295 292 292
282 284 284 284 284 284 286 285 284 283 285 282 284 283 283 283 284 283 284 285 285 284 284 284 284 284 284 284 283 283 282 282 282 282 283 283 283 283 283 284 284 284 284 285 285 286 287 287 288 288 289 289 290 291 291 292 293 292 292 292 292 291 290 290 289 288 288 288 287 287 287 288 288 289 289 290 291 291 292 293 294 294 295 295 295 295 294 295 295 296 296 296 295 295 294 293 291
281 282 286 287 286 285 283 283 285 282 281 282 283 278 276 278 280 282 283 283 283 283 282 282 282 282 282 282 282 283 283 282 282 282 282 282 282 282 283 283 283 283 284 284 284 285 286 286 287 287 288 288 289 290 291 291 290 290 290 289 287 286 285 285 285 284 284 284 284 285 285 286 286 286 287 287 288 289 289 290 291 291 291 292 292 293 292 293 292 293 293 293 293 293 293 291 291
283 285 285 287 286 284 283 283 284 279 279 284 282 280 274 279 280 282 282 281 282 282 281 281 281 282 281 281 281 281 281 281 282 281 281 281 282 282 282 282 282 283 283 283 284 284 285 285 285 286 286 287 288 288 289 290 288 288 287 286 286 285 283 284 284 285 284 284 284 284 284 285 285 285 285 285 286 287 287 288 288 289 289 289 290 290 290 290 291 291 292 292 292 293 291 291 292
282 284 282 284 284 284 282 282 284 280 280 281 281 283 276 275 283 283 282 281 280 281 281 281 281 281 281 281 281 280 281 280 280 280 281 281 281 281 281 281 282 282 282 283 283 283 283 284 284 285 285 286 286 286 287 288 286 286 285 285 284 283 283 282 283 283 284 284 284 284 284 284 285 285 285 285 285 285 286 286 286 287 287 288 288 288 288 289 290 290 290 290 290 290 290 290 289
283 285 282 283 284 282 281 283 281 280 281 279 278 281 280 275 279 280 282 281 280 280 281 281 281 281 281 280 281 280 280 280 280 280 280 280 280 280 281 281 281 281 282 282 282 282 283 283 284 284 284 284 284 285 285 285 286 284 284 283 283 283 283 283 283 284 283 284 283 283 283 283 284 284 284 284 284 285 285 285 285 285 285 285 286 286 287 287 287 288 288 288 288 289 289 289 288
285 283 283 282 281 281 279 278 281 277 278 273 278 281 277 277 278 280 281 281 280 280 282 281 281 281 281 281 281 281 280 280 280 280 280 280 280 280 280 280 281 281 281 282 282 282 282 282 283 283 283 283 283 283 284 284 284 284 283 282 282 282 282 282 283 283 283 283 282 282 283 283 283 283 284 284 284 284 284 284 284 284 284 285 285 285 285 285 286 286 287 287 287 287 287 287 288
284 283 283 282 280 279 278 277 276 277 272 275 280 280 282 276 279 280 279 281 280 282 280 280 280 280 281 280 280 280 280 279 279 279 279 279 279 279 280 280 280 280 280 281 282 281 282 282 282 282 282 283 283 283 283 283 283 283 283 282 282 282 282 282 282 282 282 282 282 282 282 282 283 283 283 283 283 284 283 284 283 284 284 285 285 285 285 285 285 286 286 286 286 286 286 286 287
284 285 281 282 282 277 276 269 274 272 270 272 276 278 281 274 276 280 279 280 280 282 282 281 280 280 280 280 280 280 279 279 279 279 279 279 279 279 279 279 280 280 280 281 281 281 282 281 282 281 281 282 282 283 283 283 283 283 283 283 282 282 282 282 281 281 281 281 281 282 282 283 283 283 283 283 283 283 284 283 283 283 284 284 284 285 285 286 286 286 286 286 286 286 286 286 286
283 282 282 276 273 273 271 268 273 271 271 277 278 278 279 279 280 281 279 279 280 279 281 282 281 281 280 280 280 280 279 279 279 279 279 279 278 278 278 279 279 279 280 280 280 281 281 281 281 281 281 281 282 282 282 282 282 282 283 283 283 283 282 282 282 281 281 282 282 282 282 282 283 283 284 284 284 284 284 284 284 284 283 284 284 284 285 285 285 285 285 285 285 286 286 286 286
283 284 278 273 271 266 264 266 263 267 272 276 280 280 278 279 281 279 279 280 280 280 280 282 282 282 281 280 280 279 279 279 279 279 279 279 279 279 279 279 279 279 279 280 280 281 281 281 281 281 281 281 281 282 282 282 282 282 283 283 282 283 282 282 282 282 283 283 284 283 283 283 283 283 283 283 284 284 284 284 284 284 284 285 285 284 284 284 285 284 284 284 284 285 285 285 284
283 282 284 281 271 263 267 262 271 273 274 276 277 275 271 276 282 277 279 279 279 279 280 282 282 280 280 279 279 278 279 279 278 278 278 278 279 279 279 279 279 279 279 280 279 280 280 281 281 281 281 281 281 281 282 282 282 282 282 283 283 282 282 283 283 283 283 283 284 284 284 284 283 283 284 284 284 284 284 284 284 284 284 284 284 284 284 284 284 284 283 283 283 284 284 284 283
280 280 282 279 280 277 276 269 267 266 270 270 273 275 276 280 279 279 278 278 278 279 279 281 280 279 279 279 279 279 279 279 278 278 278 278 279 279 279 279 279 279 279 279 279 279 280 280 280 281 281 281 281 281 281 281 281 281 281 281 282 283 283 283 283 283 283 283 283 284 284 284 284 284 284 284 284 283 283 283 283 283 283 283 283 283 283 283 283 282 282 282 282 284 283 283 283
282 283 278 281 283 281 272 271 270 270 269 273 268 277 279 279 279 277 277 278 278 279 278 279 279 279 278 279 278 278 279 278 278 278 278 278 278 279 279 279 279 279 279 279 279 279 279 280 280 280 280 280 281 281 281 281 281 281 281 281 281 281 281 281 281 282 282 282 282 283 283 283 283 283 283 283 283 283 283 283 282 282 282 282 282 282 282 282 282 281 281 281 281 282 282 282 282
283 278 282 283 283 282 280 274 271 264 269 273 270 276 277 278 276 278 278 278 277 278 278 278 279 278 278 279 279 279 279 279 278 278 277 278 278 279 279 279 279 279 279 279 280 279 279 280 280 281 282 282 281 282 282 282 282 283 283 282 281 281 281 281 281 281 281 281 281 281 281 281 280 281 282 282 281 280 280 281 280 280 281 281 281 281 281 281 281 281 281 281 281 281 281 281 281
282 281 283 284 278 278 279 275 272 270 268 269 272 274 275 278 280 277 278 277 278 277 278 278 278 278 278 279 279 279 278 278 278 278 278 278 278 279 279 279 280 279 280 280 282 282 282 282 282 281 281 281 281 282 282 283 284 283 283 281 280 280 280 281 282 282 282 282 281 281 281 281 280 281 280 280 280 280 280 280 279 279 278 278 278 279 279 279 280 279 280 280 280 280 280 280 280
285 286 285 284 282 279 277 281 278 277 272 268 273 271 277 279 279 281 281 280 279 278 278 278 280 279 280 280 280 279 279 279 279 278 278 279 279 279 279 279 281 281 281 282 282 281 280 280 280 280 281 280 280 280 281 280 280 280 280 279 279 279 279 280 280 280 279 279 279 279 280 280 280 280 280 280 279 279 279 278 279 279 278 278 278 278 278 278 278 278 278 278 279 279 279 279 279
283 283 281 283 278 281 279 278 275 276 267 269 270 275 276 277 279 280 281 281 280 280 280 280 280 280 280 280 280 279 280 279 279 279 279 279 279 280 281 282 282 282 282 280 280 280 281 280 280 280 280 280 281 281 280 280 280 279 278 278 278 278 278 279 279 280 279 279 279 279 278 278 277 278 278 278 278 278 278 278 277 278 277 277 277 277 277 277 277 276 277 277 278 278 278 278 278
284 285 283 285 280 278 276 277 277 271 275 274 271 276 278 279 280 280 279 280 281 282 281 281 281 281 281 281 280 280 280 280 280 279 279 279 279 280 280 279 279 279 280 280 281 281 281 282 282 282 281 280 279 279 278 279 279 278 278 278 277 278 278 278 278 277 277 277 277 277 277 277 277 277 277 277 276 277 277 276 276 275 276 276 276 276 276 276 276 276 276 277 277 276 276 277 277
Wind_Speed
6 5 3 1 3 1 1 6 1 2 4 1 1 1 0 0 0 2 2 3 1 1 1 1 3 2 0 1 2 3 3 3 5 4 0 2 2 3 5 6 3 3 8 8 8 8 8 9 11 12 12 12 13 12 12 11 12 13 12 11 11 10 9 9 9 9 9 9 8 9 8 7 7 7 7 7 7 7 7 7 7 8 9 10 12 12 13 12 12 13 12 12 12 12 12 12 12
4 4 3 0 0 1 0 1 4 3 6 3 1 1 2 2 0 2 0 3 2 0 2 1 0 1 3 5 1 0 1 7 6 1 4 3 3 3 6 6 2 7 7 7 8 8 8 8 11 12 12 13 13 12 11 11 12 11 12 11 10 10 9 9 9 9 9 9 10 9 9 8 8 7 7 7 7 6 6 6 6 8 9 11 10 11 11 12 12 12 12 12 12 12 12 12 11
3 5 2 3 3 4 2 3 0 1 5 3 2 5 2 0 2 3 7 3 2 2 3 0 0 0 1 1 1 2 1 0 2 2 3 3 1 2 5 6 4 4 6 6 7 8 8 8 11 13 13 13 14 13 12 12 12 11 10 10 10 9 8 8 9 9 10 10 9 9 9 8 8 8 8 8 7 6 6 5 6 7 9 9 10 10 10 11 12 11 11 11 11 11 11 11 11
2 2 1 2 2 3 1 4 5 5 4 3 2 2 1 1 3 6 4 7 6 2 1 0 0 1 1 2 1 1 3 2 3 2 1 1 2 1 5 6 4 4 4 5 6 7 7 9 12 13 13 14 15 12 12 12 13 11 10 10 9 8 8 8 8 9 9 10 10 9 9 8 8 8 8 7 7 6 6 5 6 7 9 9 9 10 10 11 11 11 11 11 11 11 11 10 10
1 1 2 3 3 1 3 1 4 3 2 5 3 4 3 4 3 4 3 2 5 1 1 0 0 0 1 0 1 0 0 2 2 2 2 2 2 2 5 4 4 5 6 5 6 6 5 9 11 12 13 13 15 13 13 12 12 13 11 11 10 9 8 8 9 8 9 9 9 9 8 8 8 8 8 7 7 6 6 6 7 7 7 9 9 9 9 10 10 10 10 10 10 11 10 10 10
3 1 4 2 0 2 5 2 3 1 3 5 0 1 2 4 2 1 8 7 2 0 1 1 0 1 1 0 3 0 2 2 1 1 1 2 6 1 4 4 5 5 4 4 5 5 6 10 11 11 12 13 16 14 12 12 13 13 12 13 12 10 10 9 9 9 8 8 8 7 8 8 8 8 8 8 7 7 7 7 7 8 8 8 8 7 8 9 8 7 7 9 9 10 10 10 9
1 4 4 4 2 4 3 4 1 2 1 4 0 2 2 3 6 3 5 4 1 2 0 0 0 0 1 2 2 4 2 0 0 0 1 5 4 1 3 5 4 5 4 4 4 5 6 10 11 12 12 12 15 13 12 14 14 14 13 14 12 12 11 11 10 10 9 8 7 7 7 7 7 7 8 8 8 7 8 7 7 8 8 7 7 7 8 8 4 4 6 7 8 8 9 9 9
1 0 2 1 1 4 3 2 1 3 1 3 1 3 4 2 2 1 3 1 2 1 1 2 1 1 2 3 0 2 2 2 2 4 5 4 1 1 3 5 6 4 4 3 4 4 6 10 11 12 12 13 12 12 13 14 14 13 14 13 12 12 12 11 12 11 10 9 8 7 7 7 7 7 7 8 8 7 7 7 8 9 7 7 7 6 6 6 3 3 6 7 7 8 8 9 8
5 6 0 3 2 3 3 1 1 2 5 2 6 6 7 2 3 0 2 1 2 1 2 0 1 2 2 5 2 2 3 2 4 4 2 1 3 2 2 4 6 5 5 3 3 4 4 9 11 12 11 12 12 12 13 15 13 13 13 13 12 12 12 12 12 11 10 10 9 8 8 7 7 7 8 8 7 8 7 8 7 8 8 6 5 4 3 2 2 6 7 7 7 8 8 8 8
2 2 1 2 3 2 1 1 2 2 1 2 2 4 1 1 0 1 1 2 1 2 1 0 0 1 0 2 5 3 1 4 5 1 3 2 3 1 2 2 3 6 6 5 4 4 4 7 10 11 11 11 12 12 12 13 13 12 12 13 12 10 11 11 12 12 10 11 9 9 9 7 6 7 7 7 7 8 9 9 8 6 6 7 7 7 7 8 4 7 9 9 8 8 7 8 7
2 5 2 3 4 2 2 1 2 4 3 4 6 7 7 1 1 0 1 3 1 1 6 2 1 1 0 2 3 3 3 5 2 0 1 1 2 3 3 1 2 5 7 6 5 4 4 5 9 10 10 10 12 11 11 12 13 12 12 12 12 11 10 10 11 11 9 10 9 9 9 7 8 8 9 9 8 7 8 9 8 6 5 4 5 4 5 6 7 9 9 9 9 8 8 8 7
1 3 4 3 2 3 2 1 4 6 7 2 1 2 1 2 1 1 0 2 3 2 2 2 1 3 1 3 2 2 7 5 1 0 0 0 3 2 4 2 1 4 4 5 4 5 4 4 5 7 9 9 10 10 10 11 11 11 11 11 11 10 11 10 10 9 9 8 8 8 9 8 8 9 9 10 9 8 8 8 9 8 6 4 2 4 2 1 8 9 8 9 8 8 8 8 7
4 1 6 5 1 1 1 0 1 4 3 1 0 0 0 0 0 1 2 1 0 3 3 5 1 1 1 0 4 6 4 6 3 3 2 0 1 1 2 2 1 2 3 3 4 5 4 4 5 5 6 8 8 9 9 10 10 10 11 11 10 10 10 9 9 8 8 8 7 6 7 7 7 8 9 10 9 9 8 8 7 9 8 5 4 1 2 2 11 9 9 9 9 9 8 7 6
3 3 2 0 1 2 2 0 1 0 1 1 2 3 2 0 2 2 3 0 2 0 2 0 1 2 1 2 6 2 4 2 5 3 2 1 1 1 1 1 1 1 1 3 4 3 4 4 4 4 4 4 4 6 7 9 10 10 10 10 10 10 9 8 8 8 7 6 6 6 5 5 7 6 8 8 8 8 6 6 6 7 7 6 3 1 3 10 9 9 9 8 9 9 8 7 6
0 2 6 5 1 1 2 2 1 3 1 0 0 2 3 3 1 2 3 0 3 3 2 1 1 1 2 1 7 2 2 5 5 5 1 3 4 3 2 2 1 0 0 2 3 3 4 3 4 4 4 4 4 4 3 6 10 9 9 9 9 9 9 8 7 6 6 4 5 5 4 5 6 7 8 7 7 8 7 8 7 5 6 3 3 7 11 9 9 8 8 8 8 8 7 7 6
5 5 4 1 0 1 1 1 0 1 1 1 2 3 0 1 2 0 2 2 2 1 1 2 0 1 1 1 6 3 5 7 5 3 2 2 2 2 2 1 2 0 1 2 3 3 3 3 3 4 5 5 4 4 4 3 7 9 8 8 8 8 8 8 7 6 6 4 3 4 5 4 5 4 7 6 7 7 8 7 7 5 5 4 4 7 9 9 8 8 7 7 8 8 7 7 6
1 3 1 4 0 0 1 1 4 0 3 2 5 5 4 3 1 3 1 0 2 2 3 2 2 1 3 4 2 4 6 5 5 1 1 1 3 2 3 1 2 0 1 1 2 1 2 3 4 4 5 6 5 5 4 3 4 8 6 7 8 8 7 7 7 6 5 4 4 3 5 3 3 3 3 3 6 5 7 8 7 7 5 5 6 7 9 9 8 7 7 7 8 9 8 7 8
2 2 4 1 1 2 4 4 7 1 0 3 4 1 1 5 4 3 2 0 2 2 2 6 4 5 3 3 2 4 3 3 4 1 1 1 3 2 3 5 6 5 4 2 1 3 2 3 3 4 4 6 5 4 4 3 2 6 5 4 5 5 5 6 5 4 4 2 3 3 3 3 3 3 3 4 4 4 5 7 6 6 6 7 7 8 9 8 8 7 7 7 8 8 7 4 4
4 2 2 3 5 3 6 3 5 1 4 2 2 3 1 4 0 2 3 6 4 7 5 1 4 7 6 4 6 6 5 5 7 6 5 6 9 8 7 6 6 6 6 4 3 2 3 2 2 3 3 4 5 5 4 4 4 3 3 4 4 5 4 4 3 3 3 3 2 3 2 3 3 3 4 4 4 6 6 7 7 5 6 8 8 8 8 9 8 8 8 8 9 8 4 3 3
0 2 1 4 7 3 4 3 2 6 1 4 4 1 0 3 0 1 1 6 5 5 8 3 0 5 9 6 7 9 9 8 8 7 7 6 6 6 6 7 7 5 5 5 6 3 3 4 5 5 5 4 5 5 4 4 4 4 4 3 4 4 5 4 3 3 4 4 4 3 3 2 3 3 5 5 5 4 5 4 6 7 8 7 8 6 8 7 7 7 9 9 6 4 3 3 3
1 1 3 2 2 0 1 5 7 5 1 1 1 1 4 4 4 1 1 6 8 6 3 5 5 5 7 7 8 8 10 10 10 9 9 8 7 6 5 6 6 8 7 8 6 5 4 5 4 5 5 6 6 5 5 4 4 4 5 5 4 4 4 6 5 3 4 4 4 4 4 3 3 4 4 4 3 2 3 4 2 2 1 2 7 3 3 4 5 5 4 4 4 3 3 2 2
3 4 2 3 1 1 6 4 3 1 2 1 1 5 5 1 0 1 2 4 10 2 1 1 3 4 3 7 7 8 10 11 11 11 10 8 8 9 8 7 6 4 7 7 7 7 5 4 6 4 5 5 6 6 6 5 5 4 4 5 5 5 3 2 6 6 5 8 5 4 4 4 4 4 3 3 4 3 2 3 4 2 2 1 3 6 5 4 4 3 4 4 3 3 3 3 2
2 3 1 3 3 2 1 0 3 2 0 1 3 2 3 1 6 2 3 8 4 4 1 1 6 6 5 6 6 8 10 10 9 10 9 10 10 9 8 7 7 9 7 7 7 7 7 4 4 4 5 5 5 5 4 5 5 5 5 4 6 3 3 8 4 3 3 3 8 6 6 3 3 3 4 3 2 3 4 2 3 3 3 3 2 5 5 3 4 4 3 3 2 3 3 3 2
2 3 1 2 5 5 3 3 4 1 2 5 2 2 3 3 9 1 4 2 4 4 7 9 7 9 8 10 9 9 8 8 8 7 6 7 7 8 7 8 7 5 4 7 7 8 7 7 4 5 5 5 5 5 6 5 5 5 5 4 5 8 5 3 5 7 3 2 3 8 5 6 5 3 3 4 4 1 2 4 2 2 2 2 2 3 6 4 3 3 3 2 3 2 3 1 1
2 2 1 2 1 4 5 4 5 3 6 5 1 3 9 2 4 4 4 4 3 7 6 8 8 10 11 12 11 10 11 10 10 8 6 6 6 5 7 7 8 7 9 9 8 7 8 7 5 4 4 5 5 5 6 5 5 5 4 4 4 1 6 8 2 3 6 6 3 2 8 6 4 5 6 4 3 4 1 1 3 5 4 3 2 2 5 5 4 3 4 3 2 2 1 2 0
3 4 0 1 3 4 5 6 6 5 3 2 1 7 7 3 2 1 4 1 3 3 10 7 8 13 11 10 10 10 10 11 9 11 10 7 8 12 13 11 10 12 10 9 9 8 7 7 4 4 3 4 4 4 4 4 4 5 4 4 4 5 1 1 3 3 1 1 2 6 7 6 6 7 6 6 7 4 3 2 1 3 6 5 4 3 3 5 5 3 3 3 3 2 3 2 0
3 1 3 2 6 5 5 2 3 1 2 3 3 6 3 1 3 3 1 4 1 10 9 7 11 11 9 9 9 9 11 12 11 7 9 10 11 12 11 10 11 10 9 11 10 10 8 6 5 2 1 2 2 3 2 3 3 3 3 3 3 3 3 3 2 3 2 4 6 1 1 1 6 6 6 3 2 5 5 4 5 3 2 3 4 4 4 5 4 4 4 4 4 3 2 0 0
2 1 3 4 6 4 8 6 9 0 3 3 6 5 1 3 1 1 2 4 4 11 8 9 10 9 8 8 9 7 9 8 8 9 14 14 12 10 11 11 12 11 10 12 9 9 9 10 8 5 0 2 2 1 1 2 1 2 2 3 2 1 2 1 2 2 1 2 3 2 6 5 1 1 4 8 8 7 7 8 6 6 6 3 4 3 3 3 3 2 2 2 2 1 1 0 0
0 2 5 6 8 7 3 5 1 1 2 2 5 1 2 0 2 1 2 3 7 10 9 8 9 8 7 6 7 9 9 8 9 11 10 8 7 8 10 9 10 10 7 7 9 9 11 10 9 9 4 4 3 3 4 4 3 4 3 3 3 1 0 3 5 6 4 1 2 1 0 1 3 5 3 2 1 3 3 2 2 5 5 5 3 3 4 3 3 3 2 2 2 2 1 1 0
0 3 1 8 6 8 4 1 2 0 1 2 2 4 6 5 3 3 2 1 6 11 8 7 6 7 7 7 8 8 10 10 12 10 9 9 9 9 10 10 10 8 8 7 9 12 9 8 7 7 9 8 5 4 4 4 4 4 3 2 4 3 3 4 5 7 6 4 3 2 2 1 2 2 6 5 4 3 3 3 1 1 0 2 4 4 5 4 4 4 3 3 2 2 2 2 1
1 1 1 2 6 6 2 1 0 1 1 1 1 3 7 9 2 2 6 2 6 6 6 6 6 7 7 7 7 8 9 8 9 10 11 10 9 8 9 10 11 10 8 10 12 9 10 10 8 8 9 9 8 7 5 4 4 4 3 2 2 1 1 1 4 3 3 2 3 3 2 0 2 4 2 3 4 4 5 5 4 6 4 4 4 2 3 3 4 4 4 4 2 1 1 1 1
2 2 5 3 3 6 9 3 2 1 1 3 3 0 8 9 1 5 6 2 8 9 6 7 7 7 7 7 7 7 7 7 9 10 11 10 10 9 10 11 10 11 11 9 9 9 11 11 10 10 11 10 9 8 7 8 8 7 7 7 7 8 7 8 8 8 7 7 6 6 6 7 7 7 5 1 2 2 3 4 5 2 3 4 4 4 4 5 4 3 3 4 4 4 2 3 0
4 2 4 4 0 6 9 1 1 2 0 3 1 5 3 6 3 5 7 8 10 10 7 7 7 7 7 7 6 6 8 10 11 12 12 11 9 9 8 9 10 10 10 11 11 10 12 12 12 12 12 10 10 10 11 11 10 11 11 11 11 11 11 10 9 10 11 11 10 10 11 10 8 7 5 5 6 6 6 6 7 4 2 1 3 3 4 4 4 4 3 4 4 4 3 3 3
4 1 4 3 3 2 3 6 3 4 2 0 3 1 6 8 6 9 11 7 9 9 6 6 6 6 6 6 6 7 7 8 11 11 12 11 9 10 8 8 9 9 9 10 10 10 9 9 10 10 10 10 9 9 10 11 11 12 11 11 13 13 12 11 11 12 12 11 13 12 12 12 12 11 9 7 6 6 6 5 5 5 5 5 3 2 2 2 1 1 3 1 0 1 2 2 4
3 2 2 6 2 4 7 2 1 4 3 3 2 2 8 11 6 10 8 6 10 7 5 5 5 6 6 6 6 7 7 9 9 8 9 9 10 9 8 9 9 10 9 10 11 11 11 11 10 12 11 10 9 9 9 10 11 11 11 13 13 12 11 12 11 13 10 10 12 11 12 12 12 12 11 10 9 8 7 7 7 6 6 6 5 5 6 6 6 6 6 5 4 2 1 0 2
7 6 5 3 4 4 4 6 3 1 3 3 3 7 9 8 5 6 7 6 8 6 5 5 5 5 5 5 5 6 6 7 5 6 7 8 8 9 8 8 7 8 9 10 12 13 13 12 9 12 12 9 7 9 8 9 11 10 11 11 13 11 10 11 12 12 11 12 12 13 13 12 12 12 12 11 11 9 8 8 8 7 5 5 6 6 4 4 4 5 5 5 5 4 4 4 3
2 2 2 4 5 6 3 3 6 0 2 6 7 5 4 8 2 4 3 3 7 6 6 5 4 4 5 5 5 5 6 5 5 5 6 7 9 9 8 8 8 9 12 12 13 13 13 11 12 13 9 10 10 8 9 8 8 9 11 12 10 8 10 11 12 11 11 10 12 12 13 11 12 13 11 10 10 9 9 8 8 6 5 6 6 5 4 4 4 3 2 4 3 3 2 3 2
1 2 2 6 3 8 3 3 2 1 3 3 1 2 7 7 2 4 3 5 6 3 4 4 4 4 4 5 5 5 2 3 6 9 10 9 10 11 9 9 10 13 11 12 12 10 10 12 13 10 10 11 11 8 7 9 7 8 10 8 9 9 9 9 9 9 10 10 12 13 12 12 13 12 11 11 12 11 10 10 10 9 9 8 7 6 6 5 4 5 4 4 3 2 0 1 1
0 3 2 3 8 4 9 3 3 1 3 8 2 3 8 1 3 4 5 5 3 4 3 2 3 4 4 5 5 5 6 6 7 7 8 9 10 10 8 8 9 8 9 10 8 11 12 12 11 10 10 10 9 8 9 9 8 8 9 6 8 9 10 9 9 8 9 10 11 11 10 10 11 12 11 11 10 10 10 9 9 8 9 8 8 9 8 9 7 6 5 4 4 2 0 1 1
5 2 2 10 2 1 6 2 3 2 1 2 2 5 10 3 4 5 3 2 3 4 5 6 5 5 5 5 4 4 6 6 8 8 8 8 8 7 8 9 9 9 10 11 11 10 10 11 11 10 10 10 9 9 7 6 8 8 9 11 11 12 8 7 10 11 12 14 15 12 12 11 12 11 11 11 10 11 10 10 8 9 9 9 8 9 9 9 7 6 5 4 2 3 4 3 1
2 5 5 5 3 4 8 4 2 1 0 1 1 4 7 2 1 2 2 3 4 3 5 5 5 4 3 2 4 5 5 5 6 7 7 7 7 8 8 7 7 9 9 10 9 9 7 9 9 10 10 9 8 9 8 5 7 7 6 8 7 8 10 11 12 13 10 9 11 13 11 10 11 11 11 11 10 10 10 10 9 9 9 9 8 8 8 8 7 6 5 5 4 2 4 2 2
2 5 10 8 6 7 4 3 4 6 3 3 1 3 3 3 3 2 3 1 2 2 5 4 3 4 4 5 5 4 5 4 3 4 4 4 5 5 7 8 9 8 9 7 6 7 8 9 10 11 10 10 10 9 8 10 10 10 11 12 12 12 12 12 12 9 10 11 9 6 12 12 12 12 12 12 12 11 11 11 10 10 10 9 8 7 6 7 9 9 8 5 5 2 0 2 2
1 5 7 10 6 2 2 1 2 2 0 1 2 1 6 6 4 3 2 2 3 2 3 2 3 3 3 3 3 3 4 5 4 4 4 5 6 6 7 9 8 8 7 4 6 8 9 10 10 11 10 9 9 9 9 9 12 12 13 11 10 11 11 7 5 5 7 7 8 11 10 11 12 12 12 12 12 11 11 11 10 10 10 9 8 9 10 9 7 7 7 7 6 5 4 3 3
4 1 3 3 4 5 4 4 5 3 1 3 2 1 4 4 6 1 3 4 2 2 1 2 2 1 2 2 3 3 3 3 3 3 4 4 4 5 7 7 7 6 4 4 6 7 10 10 11 11 10 10 9 8 10 9 11 10 12 12 11 11 11 9 7 7 7 7 11 10 9 9 11 11 11 11 11 11 10 11 10 10 10 9 8 8 8 7 7 7 7 6 7 7 5 5 4
3 1 5 4 6 5 5 4 4 0 1 6 4 1 2 3 5 1 2 2 1 2 2 2 0 0 1 1 2 3 3 3 2 3 3 4 5 5 5 7 5 4 4 4 6 7 7 9 10 11 12 10 9 10 11 11 11 10 10 9 12 8 8 8 7 7 8 8 11 9 10 9 9 10 11 11 11 11 10 9 10 10 10 9 8 8 8 7 8 8 9 9 8 7 7 5 4
1 5 7 7 6 5 4 4 4 1 1 5 5 3 3 6 5 1 1 2 4 5 7 4 3 2 1 1 1 1 2 2 3 3 3 3 3 4 3 3 5 4 4 4 5 6 8 8 11 14 12 9 8 10 11 12 11 10 12 11 12 8 7 8 9 10 9 8 11 10 8 9 8 9 9 10 10 10 10 10 10 10 9 8 8 8 8 9 9 8 6 6 6 7 5 6 5
7 3 6 5 8 4 3 6 2 2 1 7 7 3 4 5 4 5 4 5 3 5 1 2 2 2 2 2 1 0 1 2 2 2 3 3 2 3 2 4 4 4 4 4 6 7 7 9 10 15 9 9 9 10 11 11 10 10 11 10 11 10 8 9 10 10 8 9 9 8 8 7 7 8 8 9 9 9 9 8 8 8 8 8 9 9 8 7 7 6 6 6 7 7 6 6 6
5 2 3 3 1 6 3 4 5 1 6 4 1 3 2 6 5 2 4 1 1 5 6 9 7 7 6 4 3 1 0 0 1 1 2 2 3 4 2 5 5 5 4 6 6 6 8 8 10 13 10 9 8 8 10 10 10 10 10 10 11 9 8 9 11 10 8 9 8 8 6 7 7 7 7 8 9 9 8 8 8 7 8 8 8 7 7 7 7 6 7 6 6 5 6 6 5
4 5 5 2 4 5 2 2 2 5 4 1 2 2 1 7 7 2 3 1 0 2 2 9 10 9 7 5 4 3 1 0 0 0 0 1 3 3 4 4 4 5 5 5 6 6 7 8 8 13 10 7 8 7 10 9 9 9 8 9 9 8 9 9 9 9 7 8 7 8 9 8 7 9 9 9 9 9 8 8 9 8 8 8 7 7 7 7 7 6 6 7 6 7 6 6 6
4 6 5 5 0 1 3 5 1 5 4 3 0 1 3 3 7 2 4 3 2 4 5 5 10 10 10 8 5 4 3 2 1 1 1 1 1 2 2 3 4 4 4 5 5 6 6 7 7 12 8 6 6 8 8 10 9 8 7 8 7 7 8 8 7 8 7 7 6 8 8 7 7 7 7 8 7 7 7 7 7 7 7 7 7 7 7 7 7 7 6 7 7 5 5 6 5
7 1 7 7 8 6 5 4 4 4 3 2 4 1 5 4 2 1 5 4 3 3 5 6 6 5 5 4 3 3 3 2 2 2 2 2 1 1 3 2 3 4 4 4 4 4 5 6 7 9 9 5 6 7 7 9 8 7 6 6 6 6 7 7 7 6 6 7 7 7 7 6 7 6 6 5 6 7 7 7 7 7 7 7 7 8 7 7 7 7 6 6 6 5 6 6 6
1 2 5 6 6 5 4 4 3 2 2 3 1 5 3 4 0 2 2 1 2 2 3 7 6 4 4 4 5 4 4 4 3 4 3 3 2 1 1 2 3 4 4 4 4 4 6 5 5 6 6 5 6 7 6 6 6 5 5 7 6 6 5 6 6 6 6 6 6 6 6 6 5 5 5 6 7 7 7 8 8 8 8 8 7 7 7 6 7 7 7 7 8 5 7 7 5
3 4 5 5 1 5 4 1 1 1 2 8 2 6 3 1 0 3 4 1 1 1 3 5 7 6 5 5 5 5 5 5 5 4 4 3 2 2 3 3 3 3 4 4 4 4 5 5 5 6 5 5 5 5 5 5 5 6 5 5 5 5 5 6 6 6 6 5 5 5 6 5 4 5 5 4 6 6 6 7 7 8 8 8 8 8 8 7 7 6 6 7 7 7 6 7 6
8 2 7 1 1 3 4 4 1 3 3 7 3 6 3 2 6 1 1 1 2 2 4 5 5 5 6 6 6 7 7 6 4 4 4 4 4 4 3 3 3 4 4 4 4 3 4 4 5 7 6 6 4 4 4 4 5 5 5 5 5 4 5 4 5 5 5 6 5 5 4 5 5 4 5 4 4 5 5 6 6 6 6 6 7 7 7 7 6 6 6 5 5 5 6 5 5
3 2 2 4 2 1 1 4 3 2 4 6 3 1 4 7 6 2 5 7 8 6 5 6 8 8 9 8 9 7 4 4 5 6 5 5 5 4 4 4 4 4 3 4 4 3 3 4 4 5 6 5 4 3 4 3 4 4 4 4 4 4 4 4 4 4 5 6 6 6 6 5 4 4 5 5 5 5 5 5 4 4 4 5 4 5 5 6 5 6 6 6 6 6 6 7 6
2 2 2 1 1 1 5 5 2 4 5 2 7 2 8 6 4 11 8 12 10 9 8 11 12 12 11 10 10 8 8 8 7 6 6 6 5 5 5 5 5 5 4 4 4 3 4 4 4 4 4 4 4 4 4 4 4 4 4 4 4 4 4 4 4 5 6 6 5 5 6 7 7 6 6 6 6 6 6 6 6 6 5 5 6 6 6 5 6 5 6 7 7 7 7 7 8
2 2 1 0 1 2 3 1 3 3 4 4 3 11 2 2 3 6 6 8 13 16 16 12 11 12 11 11 10 9 9 8 8 8 7 6 5 5 5 5 4 4 3 3 4 5 4 4 4 4 5 4 5 3 4 4 4 4 5 5 5 5 6 5 7 7 8 7 7 7 7 5 4 7 6 7 8 7 7 7 7 7 7 7 7 7 6 5 5 5 5 5 6 7 8 8 7
5 11 10 11 7 3 3 8 3 1 3 5 3 13 4 2 2 2 1 4 10 11 11 13 13 14 16 12 9 9 9 9 9 7 6 6 5 6 5 4 3 3 4 4 4 4 4 4 3 3 4 4 3 3 3 4 4 5 6 5 5 5 5 6 7 8 8 8 7 7 6 7 8 7 8 9 9 8 8 8 8 8 7 7 7 6 6 6 7 7 6 5 6 7 7 8 7
Wind_Direction
336 355 340 23 71 113 50 359 135 340 61 17 2 14 205 171 244 359 246 334 350 249 195 331 127 105 196 203 183 199 201 117 210 113 2 238 233 231 215 220 292 170 161 163 171 173 180 185 182 175 181 174 179 178 170 171 168 168 165 162 160 159 154 151 148 144 147 145 147 142 135 141 137 131 129 122 112 100 90 94 104 113 113 104 92 92 90 85 81 77 72 64 57 53 52 50 48
342 353 20 307 25 55 297 141 97 353 41 62 235 94 250 280 29 217 228 197 207 315 332 275 321 67 38 76 134 118 272 226 169 203 281 236 268 264 206 200 190 173 164 161 168 173 176 183 183 176 181 175 177 176 172 172 173 169 168 165 166 165 159 156 155 156 156 153 153 147 147 148 142 139 138 132 117 109 101 103 109 113 110 105 103 97 91 84 79 75 71 66 59 51 49 48 48
340 14 14 29 31 70 101 32 294 54 86 71 276 203 329 323 230 260 225 211 226 293 292 302 144 97 61 16 5 129 265 307 298 281 245 318 350 268 173 181 178 176 166 163 166 172 176 181 182 178 181 177 177 175 172 173 174 172 171 170 168 170 164 163 161 165 164 157 155 154 153 151 146 146 144 138 125 111 107 110 110 109 113 110 107 100 90 81 72 68 66 62 59 54 48 44 44
52 55 125 62 262 34 55 28 83 121 110 195 317 292 195 177 246 224 248 253 274 327 341 60 114 230 135 17 247 55 283 336 195 167 300 316 190 253 169 159 164 150 155 169 170 173 177 185 180 179 181 179 180 175 172 175 175 172 175 172 174 173 170 170 167 174 167 162 160 156 153 152 150 146 140 138 132 118 123 128 115 117 117 115 107 105 94 84 73 62 60 56 51 48 43 40 39
70 19 83 103 110 344 103 107 131 106 107 208 88 269 257 220 251 286 273 281 286 182 58 272 97 321 164 135 182 104 266 242 308 203 261 268 304 268 156 138 136 149 165 177 171 173 181 185 184 180 180 180 183 171 172 176 177 176 176 174 177 174 174 176 179 179 173 168 161 157 156 151 153 148 139 138 133 128 129 129 117 116 120 119 111 101 99 83 75 65 57 52 48 45 41 37 35
57 49 10 86 10 164 52 62 36 18 215 151 77 16 257 236 232 282 282 300 275 136 179 74 197 342 347 261 183 213 211 39 203 265 204 325 327 239 153 134 138 154 165 176 175 173 180 186 187 184 184 182 185 175 175 177 181 180 177 176 182 176 174 178 186 186 179 172 166 164 161 158 160 155 145 141 140 135 130 122 117 116 110 109 112 104 89 84 84 69 57 54 50 44 39 37 36
355 47 357 28 40 48 151 119 169 190 305 165 275 258 261 293 228 348 326 353 137 77 327 321 58 292 52 314 330 242 184 93 93 281 181 305 331 161 140 133 138 161 164 179 177 178 182 186 188 188 186 185 189 184 177 182 186 185 180 182 185 181 182 180 187 190 187 180 176 173 168 168 168 161 151 146 146 145 140 134 128 120 122 121 114 99 84 83 71 71 62 60 52 45 41 37 35
89 118 316 112 299 47 43 159 227 167 4 189 259 265 273 246 253 182 284 84 317 36 350 281 291 121 262 63 49 278 333 200 262 303 289 293 147 175 143 139 144 165 172 174 182 180 187 189 191 191 190 186 190 186 181 187 190 184 184 187 186 186 187 185 187 190 189 183 188 183 181 179 178 167 156 151 152 150 149 144 137 135 129 121 104 90 82 64 60 101 103 81 68 54 43 40 36
6 90 267 71 49 28 63 69 272 252 289 301 281 224 275 272 185 123 296 245 311 218 307 311 255 45 253 350 223 263 298 308 305 290 330 74 131 177 143 158 156 160 173 178 179 182 190 197 196 194 195 190 191 188 188 189 193 185 187 192 191 192 191 191 191 192 187 189 187 191 191 193 184 174 165 157 159 149 142 138 147 137 139 129 117 98 87 59 9 115 106 88 70 61 52 47 37
44 43 308 112 136 49 17 293 76 184 241 232 255 285 247 203 187 148 241 323 209 326 274 111 178 327 341 287 313 10 13 334 299 45 11 67 130 129 142 177 167 161 165 179 179 182 195 202 201 201 198 196 193 191 191 190 191 191 191 197 196 194 195 196 197 195 189 186 196 194 197 187 171 187 172 160 164 151 145 147 149 144 90 72 72 63 53 27 19 115 100 86 76 69 60 49 43
350 15 137 74 31 86 113 256 278 314 281 307 289 248 247 244 135 205 206 261 172 202 312 151 45 250 70 281 220 254 292 306 358 329 5 18 112 135 159 124 157 173 170 180 184 178 189 202 207 207 203 201 196 194 192 191 192 191 193 198 204 197 197 199 202 199 194 189 199 199 205 175 181 187 175 171 166 166 160 153 144 121 104 94 88 75 58 48 95 110 92 82 78 72 64 55 49
332 21 6 101 109 144 227 138 288 288 306 325 85 330 171 147 137 356 288 10 335 333 211 118 341 152 21 330 311 304 311 3 285 174 264 32 130 166 164 192 169 169 178 180 177 186 187 194 203 216 212 207 203 197 194 195 195 192 190 195 199 199 199 203 203 204 196 193 201 196 205 190 183 188 180 172 168 174 169 151 138 139 135 136 123 103 91 22 102 103 95 88 79 71 64 59 53
102 94 71 77 184 135 154 130 256 299 335 338 302 37 245 94 267 243 241 225 38 1 358 211 146 80 304 237 271 322 15 321 307 280 298 336 152 184 125 134 166 166 159 177 184 192 187 191 199 206 211 215 214 205 198 196 197 195 191 191 195 196 200 204 204 206 202 198 203 197 201 190 186 186 184 174 173 178 178 158 148 151 151 152 151 153 149 50 117 111 105 97 85 72 64 58 58
109 182 124 147 44 122 149 253 324 93 316 259 257 283 330 160 229 212 137 275 280 125 244 194 119 147 283 25 317 334 273 283 305 307 297 3 44 61 91 50 94 175 164 169 199 197 200 196 195 200 206 210 215 214 210 200 199 198 192 191 195 197 198 204 207 207 208 207 206 195 194 183 171 178 171 177 179 180 173 159 152 157 153 155 154 259 25 103 111 107 101 94 85 79 69 60 60
100 147 82 119 72 133 240 94 183 135 172 182 263 343 2 259 126 125 187 162 291 213 309 164 211 71 253 351 286 255 274 304 313 319 25 45 32 38 40 56 51 42 312 185 207 200 212 205 198 197 202 202 208 206 208 209 202 202 195 195 196 200 198 202 204 204 210 216 199 192 184 171 165 167 162 174 173 174 176 157 150 156 158 149 81 80 109 114 111 107 105 97 92 83 75 64 58
138 87 75 100 282 106 216 154 157 105 258 179 318 245 258 308 188 83 269 173 263 315 24 248 34 234 259 175 245 256 271 307 311 336 55 43 7 20 23 36 59 48 238 219 208 209 204 204 201 199 199 202 202 201 203 205 206 203 200 197 201 203 201 201 202 200 202 196 189 176 161 154 152 155 167 171 175 172 160 156 151 148 150 170 136 117 118 120 116 113 105 100 96 88 77 66 57
89 79 47 30 330 159 251 157 149 231 253 274 298 35 26 295 281 230 162 92 285 287 355 244 220 40 204 226 279 291 296 306 337 6 48 33 11 336 347 351 352 331 38 337 336 294 246 211 207 201 203 205 202 199 201 203 201 201 206 202 201 205 205 203 203 197 191 190 173 164 147 147 154 151 169 176 183 160 158 161 158 154 156 142 132 132 132 129 127 120 113 104 97 89 77 60 44
53 65 114 49 203 134 201 175 188 185 315 293 346 54 11 316 331 303 338 15 46 307 279 289 297 247 218 260 325 294 302 358 350 357 359 314 9 333 330 344 1 333 353 334 330 321 265 254 233 212 203 208 202 197 198 195 183 191 193 200 202 201 210 205 200 189 183 180 166 147 151 150 157 162 169 178 173 154 159 164 169 164 158 138 140 134 141 139 135 130 119 111 100 88 79 62 40
86 133 84 242 182 239 159 200 202 135 275 234 271 297 188 248 76 312 4 301 11 341 301 228 278 301 332 334 332 350 351 17 18 17 4 3 5 358 346 339 341 334 331 338 310 250 258 235 226 234 231 212 209 201 194 183 182 170 194 183 190 195 191 201 202 186 168 164 162 151 152 160 159 168 171 172 183 163 166 174 171 181 153 149 147 138 147 145 142 136 125 110 95 85 68 68 61
197 114 235 254 210 248 226 195 229 201 47 302 309 1 126 257 136 285 297 290 322 287 294 344 297 300 316 308 351 336 2 19 28 26 20 14 11 358 344 339 326 318 306 303 305 292 227 237 211 201 202 202 206 208 196 180 176 169 192 186 170 190 187 193 196 185 183 181 172 153 144 162 163 164 165 175 166 160 164 187 193 176 166 161 146 127 145 139 140 134 123 105 89 80 74 57 66
268 87 181 235 203 127 268 188 240 241 166 241 225 315 325 289 218 45 220 347 302 278 221 217 272 285 290 322 3 4 17 25 23 31 28 17 9 14 356 328 315 308 302 302 308 287 248 226 227 212 198 195 196 200 198 193 172 164 178 183 181 182 186 178 193 196 191 171 165 164 151 164 175 166 160 152 167 155 153 170 173 177 148 179 125 94 114 124 109 98 87 82 106 108 87 58 78
113 204 192 161 143 282 251 208 194 181 221 214 328 337 276 308 123 205 152 254 271 316 205 207 245 290 326 359 352 26 31 34 27 30 27 23 14 358 350 345 332 323 323 328 312 300 269 237 222 217 200 204 198 195 196 185 171 179 173 179 173 174 182 221 180 177 208 178 169 155 151 165 170 155 134 162 164 153 166 178 166 135 132 223 148 147 136 131 124 120 122 119 112 95 103 102 70
226 314 255 200 195 238 272 298 202 140 310 243 312 251 326 28 289 237 211 215 250 85 212 315 52 49 75 70 37 29 29 28 24 23 16 15 4 358 355 342 344 341 338 322 316 307 298 271 239 214 211 200 200 190 186 180 188 182 173 178 171 172 183 197 209 171 212 234 164 165 162 174 160 142 145 152 184 151 170 183 180 159 157 157 160 141 139 132 140 137 131 133 128 110 94 85 81
125 243 345 320 177 215 249 290 114 309 149 260 199 347 302 297 313 76 271 353 281 350 36 75 78 60 49 53 34 40 34 28 18 13 13 10 2 349 346 342 335 319 325 327 321 315 306 286 243 215 214 198 195 185 186 186 181 175 175 168 201 183 200 270 201 160 169 228 261 153 165 161 162 146 157 159 162 120 214 175 150 123 118 119 143 152 135 129 122 123 126 121 134 128 137 99 72
165 276 225 254 170 243 281 272 296 265 253 265 330 295 265 191 230 358 307 24 354 32 55 62 62 56 49 49 35 29 28 19 14 1 6 8 359 345 358 355 351 346 358 346 330 323 317 305 287 234 212 204 195 188 194 180 167 172 167 167 169 178 203 204 225 296 211 183 170 257 151 170 189 181 169 171 130 172 179 240 185 176 159 144 142 140 133 143 153 152 153 157 160 167 152 179 104
186 219 158 281 273 297 281 308 262 247 262 167 346 267 285 273 224 248 312 325 39 61 56 38 53 52 43 41 35 31 26 20 7 11 1 345 357 11 9 359 352 3 348 333 340 336 325 317 298 266 232 213 199 189 189 172 167 171 167 168 168 150 208 309 203 150 126 302 269 184 164 170 189 171 179 167 157 171 171 171 237 205 193 166 146 150 167 161 169 151 146 155 167 186 201 223 87
165 227 215 273 277 339 293 223 286 121 238 185 234 284 294 311 38 284 322 330 288 62 51 35 54 54 41 40 31 28 29 20 11 345 8 10 12 13 355 358 5 348 342 351 351 346 330 337 332 290 286 230 209 193 172 165 143 161 144 132 133 161 139 88 8 319 244 180 174 135 355 214 178 157 153 159 178 146 170 182 207 187 178 197 196 175 142 167 159 172 177 178 189 187 222 52 79
69 220 327 297 316 273 260 289 280 256 297 172 189 251 295 289 103 217 297 338 42 81 47 42 48 47 39 35 39 26 32 17 9 18 19 10 6 357 355 358 349 347 356 353 348 340 351 3 357 350 340 142 141 89 80 116 93 96 95 102 108 100 121 134 349 12 33 330 338 290 182 160 185 213 162 170 182 181 185 202 199 180 193 187 190 156 127 106 130 120 122 134 128 136 127 72 74
31 39 323 301 339 336 280 249 346 141 263 143 163 309 298 330 217 256 314 44 67 75 58 44 44 41 37 32 35 34 26 14 18 26 15 6 354 356 355 353 348 347 347 343 342 358 10 359 6 9 26 81 92 82 68 51 65 69 76 69 54 67 62 241 224 253 264 209 168 240 282 139 141 147 158 157 142 161 168 164 180 218 201 175 156 135 119 115 110 119 93 80 74 89 99 269 38
39 34 62 327 356 321 313 54 12 58 254 128 179 297 276 265 219 321 5 98 71 57 51 43 41 35 33 31 30 28 23 20 22 19 8 3 360 358 359 351 353 356 344 347 356 16 6 7 9 24 26 35 52 95 89 76 69 63 71 101 136 162 194 205 217 222 221 237 215 182 208 166 176 183 169 174 174 198 192 184 201 288 320 87 111 143 159 157 141 138 134 119 125 154 221 267 316
245 261 66 279 357 276 280 95 287 1 179 57 119 215 284 272 62 338 345 357 91 80 53 49 40 35 32 30 27 26 23 25 18 12 10 5 2 1 359 355 360 0 359 3 9 0 14 18 15 32 28 41 41 36 49 72 84 90 84 70 55 36 337 315 334 357 14 352 346 343 341 245 166 181 194 166 167 175 197 179 189 209 180 161 130 111 124 129 149 169 154 163 139 191 233 275 253
11 23 299 328 170 279 301 306 174 192 354 27 101 254 250 272 265 23 351 12 102 82 64 49 41 38 34 29 28 23 18 14 16 16 12 5 6 2 2 360 358 6 10 1 3 8 22 21 20 35 31 40 44 49 55 56 54 51 47 39 37 29 30 24 16 18 19 22 21 26 19 20 13 360 357 28 149 153 178 201 221 163 146 136 132 137 144 170 164 153 171 167 182 236 215 265 153
353 170 271 275 298 265 335 351 312 341 88 10 151 247 330 308 156 34 7 46 72 85 59 46 43 38 35 32 29 22 16 13 16 13 7 4 3 2 1 2 6 5 9 11 10 12 22 17 23 29 30 32 42 55 62 63 65 61 56 54 51 48 44 38 38 37 34 34 31 32 24 25 19 21 39 29 22 18 4 3 15 23 27 94 156 155 172 163 164 171 175 202 198 213 193 253 290
281 37 219 210 205 265 274 300 33 15 78 208 11 250 248 265 307 23 22 35 75 75 68 53 48 47 38 36 33 29 27 19 17 4 359 0 356 360 1 4 7 10 17 19 18 21 21 18 23 27 27 30 40 51 62 69 70 71 65 64 58 56 49 49 43 45 40 36 39 35 37 37 29 24 24 24 42 37 36 34 36 36 35 27 20 16 16 31 85 174 221 132 144 147 195 229 265
216 163 244 282 255 216 252 315 271 17 8 357 316 247 273 276 305 24 16 19 80 76 78 67 57 48 41 39 36 31 29 28 11 360 356 356 0 360 4 4 11 16 20 20 25 25 27 22 24 28 26 22 35 46 58 66 68 71 69 64 58 54 48 53 46 48 35 37 40 33 36 40 36 37 36 38 41 35 37 35 39 37 47 45 46 38 31 22 19 13 360 17 15 22 9 272 265
217 188 190 181 206 236 213 242 282 83 309 314 260 259 274 282 304 14 11 25 75 83 70 64 52 48 46 43 36 35 31 25 1 359 360 3 4 4 6 4 14 21 24 24 30 30 28 26 24 33 25 16 33 46 50 65 63 55 60 57 53 44 50 53 48 50 38 39 35 36 34 35 34 32 28 38 49 42 45 39 38 27 36 63 65 52 44 52 43 26 25 13 6 355 25 18 26
118 115 135 217 230 277 287 265 255 341 335 251 251 245 253 269 350 338 359 36 58 55 59 59 49 48 44 42 38 31 35 24 334 1 12 8 9 10 8 13 13 30 28 25 33 32 32 27 30 28 12 21 35 37 43 53 67 74 62 64 66 49 49 53 53 45 44 40 41 42 39 37 34 34 28 30 41 48 49 51 51 43 39 49 52 53 50 55 54 77 100 82 59 20 2 27 356
183 236 230 275 186 261 239 249 357 333 159 296 151 335 271 266 19 357 359 53 42 32 69 57 58 51 42 43 37 24 360 354 15 21 11 12 13 11 12 16 18 32 18 27 33 34 38 38 39 27 19 26 28 28 49 57 49 66 89 75 80 62 54 44 50 42 46 45 40 39 38 36 38 34 26 29 37 36 35 36 35 29 27 35 49 50 53 57 52 43 42 50 39 86 280 24 355
254 214 248 301 264 240 279 276 342 280 128 266 351 309 273 294 48 36 49 63 55 46 55 55 69 48 38 31 29 23 28 25 22 16 14 15 11 9 11 16 24 27 27 29 22 37 39 41 37 34 29 27 23 21 43 55 56 52 73 71 74 80 62 62 62 51 45 48 47 43 39 35 34 36 28 29 39 35 37 40 36 33 34 29 39 37 34 36 36 45 40 51 10 2 66 13 50
204 200 197 241 211 25 296 292 8 16 111 284 6 335 292 103 72 65 45 70 84 67 65 59 48 57 47 40 29 30 27 24 24 13 10 8 9 6 15 23 19 24 27 26 22 31 39 43 43 41 37 34 30 23 38 47 68 80 76 80 73 71 72 65 64 49 40 40 38 34 36 34 36 40 34 34 38 36 32 36 36 37 36 31 38 41 35 34 26 33 41 45 65 15 6 354 359
253 196 214 247 218 227 189 249 323 306 34 70 300 311 302 309 190 86 90 97 87 46 57 51 40 40 35 34 46 33 39 20 20 14 9 8 12 17 20 20 18 32 30 28 21 27 38 44 50 52 48 42 39 36 37 46 65 62 73 80 79 77 51 45 45 38 36 40 44 36 31 31 35 39 36 37 39 40 38 36 38 37 40 33 37 42 38 31 26 23 23 29 40 32 3 355 333
306 228 206 221 219 232 267 333 10 10 334 354 51 349 308 294 293 205 179 77 58 20 62 38 27 28 23 39 27 19 26 30 29 11 2 357 11 19 27 27 34 31 31 22 24 31 41 47 49 51 51 46 40 38 43 60 57 65 58 53 50 53 51 40 40 36 34 38 43 41 40 36 36 40 36 35 35 35 36 35 38 39 37 34 32 40 38 32 27 23 13 17 24 32 96 40 339
64 272 203 221 217 183 174 185 91 296 148 341 27 80 264 330 324 227 158 95 70 34 49 22 25 21 28 30 26 19 18 8 8 16 8 21 13 31 35 36 25 32 17 6 39 44 47 52 54 53 53 50 42 42 41 57 66 66 73 77 79 75 80 63 64 54 60 54 54 46 43 39 37 39 35 35 33 33 36 34 35 38 39 35 30 35 31 24 15 19 7 22 16 8 20 16 3
226 252 138 153 153 178 200 156 175 217 255 300 24 151 229 309 283 26 133 105 61 61 10 5 10 18 18 28 21 19 12 9 358 357 7 18 22 25 41 35 32 14 347 11 51 51 53 53 58 58 56 53 44 50 58 56 74 72 76 76 73 75 76 82 64 63 59 57 56 47 45 42 40 40 38 36 34 33 33 34 33 35 37 32 34 37 34 17 20 18 20 16 18 24 19 21 347
219 210 135 144 161 177 138 127 150 148 54 293 314 231 331 254 260 6 136 159 231 262 225 218 253 330 49 28 24 15 10 356 359 2 13 14 20 23 24 45 24 12 353 31 51 56 59 60 65 65 60 57 48 52 62 60 70 74 77 80 79 67 78 78 75 61 57 48 56 44 45 41 40 38 39 37 34 34 35 34 32 33 33 28 28 30 27 26 28 24 18 19 17 13 16 0 15
217 128 96 83 79 72 112 106 109 354 78 266 260 191 233 281 274 4 3 282 266 221 214 201 213 204 217 120 31 25 6 4 353 356 356 17 18 23 9 36 52 29 1 23 51 61 61 65 68 66 57 54 51 55 62 63 64 72 75 72 79 75 68 70 66 59 51 44 53 45 41 40 34 34 32 34 34 31 33 31 33 33 29 26 27 25 23 23 19 21 21 21 22 25 11 17 12
128 93 65 23 36 25 28 60 84 65 269 244 231 250 181 291 264 206 141 220 202 165 143 174 219 251 242 237 197 88 14 349 349 352 1 8 360 27 11 59 55 43 22 30 49 55 59 62 68 67 56 55 51 56 60 64 63 63 72 73 76 77 68 69 66 57 51 48 50 45 41 38 37 36 31 30 32 27 30 32 33 31 30 26 24 22 21 19 13 13 11 21 28 26 11 4 8
124 114 127 64 1 10 37 346 32 165 267 262 252 222 160 172 284 271 226 155 204 184 188 176 192 203 201 193 212 183 25 351 337 10 21 24 44 38 39 61 54 50 46 46 50 56 60 61 69 75 57 52 53 56 62 62 65 66 69 72 74 71 70 67 66 64 53 56 52 48 41 44 37 36 35 32 27 21 25 25 25 28 29 25 25 18 16 15 11 12 15 18 16 16 14 10 4
84 91 61 96 259 33 314 16 276 211 210 208 329 171 91 242 227 175 186 216 258 219 204 188 182 190 190 196 190 180 160 25 61 334 11 44 85 81 75 69 67 57 63 57 57 65 68 69 70 80 65 56 59 62 69 68 69 66 69 71 71 69 69 71 70 69 56 57 48 45 37 37 28 30 26 27 20 20 20 22 22 22 19 19 16 17 14 14 13 14 16 12 12 17 7 360 2
124 151 138 95 157 66 262 269 260 308 287 258 178 126 270 246 286 191 230 235 215 244 233 202 192 184 180 184 178 164 159 184 212 223 217 185 131 116 93 95 87 83 73 72 67 73 75 78 77 82 81 70 77 75 76 77 70 70 70 75 75 75 72 70 67 69 61 58 51 49 44 38 35 34 25 24 11 9 20 21 20 21 20 16 15 13 12 10 10 12 9 12 5 359 1 0 350
207 112 150 182 141 155 228 186 213 226 196 249 272 61 228 142 217 174 249 267 277 249 229 199 179 178 173 157 146 148 162 201 211 212 205 198 198 159 118 110 105 94 88 79 79 79 84 82 82 88 86 74 79 80 78 76 73 71 73 74 75 73 76 73 71 70 65 59 50 51 46 38 37 26 24 13 9 15 12 15 17 18 15 13 10 10 7 6 7 5 9 4 359 353 355 351 348
182 170 79 93 232 137 220 204 161 230 326 332 202 208 188 172 358 282 307 317 4 7 110 142 148 152 147 147 169 182 194 203 203 211 225 232 226 219 170 131 118 113 105 99 91 97 92 93 90 89 93 86 76 77 75 83 84 82 74 73 69 71 74 76 73 67 63 61 54 54 46 43 34 28 20 16 11 12 10 9 11 12 8 10 10 8 6 6 2 1 358 359 355 353 349 347 341
210 107 189 208 156 107 83 44 56 76 53 254 148 309 310 299 319 341 317 29 7 52 127 147 163 169 162 179 188 198 206 202 207 208 209 216 219 220 199 172 144 131 124 121 124 120 115 112 105 94 84 75 77 80 87 82 82 76 68 71 70 70 71 73 76 70 67 59 60 49 50 36 32 30 19 16 10 11 14 9 8 6 5 3 2 1 2 0 358 358 355 352 350 344 343 336 335
98 176 228 158 147 117 132 226 3 69 205 269 88 212 273 91 278 99 1 320 243 216 182 183 179 167 180 199 199 204 204 205 208 214 221 218 215 203 196 195 171 155 146 140 137 143 128 125 118 112 105 100 92 90 86 88 86 81 74 67 58 62 69 66 67 68 59 61 49 50 43 36 29 19 20 11 9 9 13 8 9 1 359 359 359 355 356 354 352 353 347 342 334 330 329 323 324
148 196 203 116 214 183 312 83 272 270 258 271 292 267 256 183 238 112 241 195 207 203 197 182 197 191 200 203 210 210 209 210 210 213 214 215 211 208 196 186 193 186 176 163 154 145 128 114 114 119 122 123 122 102 91 71 74 79 75 61 57 49 48 58 55 64 63 57 50 42 40 33 25 24 20 15 13 11 10 5 5 357 355 355 354 351 352 348 350 344 341 337 331 335 328 325 321
55 69 69 353 124 161 123 200 196 121 273 25 285 90 256 195 217 184 201 196 181 177 187 205 199 195 196 202 202 196 201 205 203 205 207 207 207 206 196 191 190 188 180 184 163 139 135 139 122 113 96 93 82 77 80 78 66 78 75 72 60 68 64 77 68 62 54 51 43 39 32 27 23 19 19 11 13 7 6 4 3 2 359 359 357 354 351 347 343 344 336 334 330 331 328 324 320
114 120 233 136 12 224 105 4 137 182 184 204 270 294 274 259 206 173 214 182 180 179 190 193 196 201 206 206 195 193 201 203 203 200 196 195 199 201 203 203 198 191 186 170 169 161 158 140 119 111 104 89 81 70 74 75 80 75 79 69 62 55 50 52 53 46 48 39 35 31 32 18 12 21 12 9 10 5 4 3 360 1 0 355 355 351 350 348 339 335 330 321 323 326 322 319 317
183 170 192 176 128 148 175 253 66 97 144 236 191 261 287 264 163 195 202 207 190 200 179 184 195 199 203 200 196 197 202 209 203 195 184 185 196 203 208 213 214 194 190 180 187 156 121 89 87 92 84 62 82 58 84 97 87 80 71 61 55 54 51 49 51 42 39 36 27 27 21 14 22 8 11 3 1 358 358 357 357 354 355 353 353 352 347 349 341 336 332 329 326 321 314 310 314